Date String (YYYY-MM-DD hh:mm:ss) UTC,Instrument flags,Ambient pressure (hPa),Sample flow (lpm),Bypass flow (lpm),Sample temperature (°C),Ambient temperature (°C),ASC tube jacket temperature (°C),LED temperature (°C),Box temperature (°C),Sample RH (%),Span deviation,Mass concentration (μg/m³),Mass concentration (μg/m³),Mass concentration (μg/m³)
DateTimeUTC,F1_M11,P_M11,Q1_M11,Q2_M11,T1_M11,T2_M11,T3_M11,T4_M11,T5_M11,U1_M11,ZSPAN_M11,X0_M11,X2_M11,X1_M11
2022-11-19 08:00:00,,0829.8,4.99,0.00,22.2,22.2,00.0,31.0,24.1,08.2,0000.0,0009.61,0006.30,0005.95
2022-11-19 08:01:00,,0829.6,5.01,0.00,22.2,21.6,00.0,31.0,24.0,08.1,0000.0,0009.50,0006.13,0005.78
2022-11-19 08:02:00,,0829.6,4.99,0.00,22.1,21.1,00.0,31.0,23.9,08.1,0000.0,0009.86,0005.92,0005.60
2022-11-19 08:03:00,,0829.6,5.00,0.00,22.1,20.9,00.0,31.0,23.8,08.1,0000.0,0009.49,0005.74,0005.42
2022-11-19 08:04:00,,0829.6,5.01,0.00,22.0,20.6,00.0,31.0,23.7,08.2,0000.0,0009.28,0005.58,0005.26
2022-11-19 08:05:00,,0829.5,5.01,0.00,22.0,20.4,00.0,31.0,23.6,08.1,0000.0,0009.12,0005.43,0005.13
2022-11-19 08:06:00,,0829.5,5.00,0.00,21.9,20.4,00.0,31.0,23.5,08.2,0000.0,0009.08,0005.35,0005.06
2022-11-19 08:07:00,,0829.5,5.01,0.00,22.0,21.1,00.0,30.9,23.7,08.2,0000.0,0008.68,0005.30,0005.02
2022-11-19 08:08:00,,0829.6,4.99,0.00,22.1,22.1,00.0,30.9,23.9,08.1,0000.0,0008.39,0005.23,0004.94
2022-11-19 08:09:00,,0829.6,4.99,0.00,22.2,22.6,00.0,30.9,24.1,08.1,0000.0,0008.25,0005.13,0004.85
2022-11-19 08:10:00,,0829.6,5.00,0.00,22.2,22.0,00.0,31.0,24.1,08.0,0000.0,0008.11,0005.06,0004.79
2022-11-19 08:11:00,,0829.5,5.01,0.00,22.2,21.5,00.0,31.0,24.0,08.0,0000.0,0008.07,0005.05,0004.78
2022-11-19 08:12:00,,0829.5,5.00,0.00,22.1,21.0,00.0,31.0,23.8,08.1,0000.0,0008.01,0005.08,0004.80
2022-11-19 08:13:00,,0829.5,4.98,0.00,22.1,20.7,00.0,31.0,23.7,08.1,0000.0,0007.44,0005.07,0004.79
2022-11-19 08:14:00,,0829.5,4.99,0.00,22.0,20.4,00.0,31.0,23.6,08.1,0000.0,0007.38,0005.03,0004.76
2022-11-19 08:15:00,,0829.5,5.02,0.00,21.9,20.1,00.0,31.0,23.6,08.1,0000.0,0007.19,0004.95,0004.70
2022-11-19 08:16:00,,0829.5,5.00,0.00,21.9,20.4,00.0,30.9,23.5,08.1,0000.0,0007.38,0004.90,0004.63
2022-11-19 08:17:00,,0829.6,5.01,0.00,22.0,21.4,00.0,30.9,23.7,08.1,0000.0,0007.23,0004.77,0004.51
2022-11-19 08:18:00,,0829.6,5.00,0.00,22.1,22.3,00.0,30.9,24.0,08.1,0000.0,0006.86,0004.61,0004.37
2022-11-19 08:19:00,,0829.6,4.99,0.00,22.2,22.4,00.0,30.9,24.1,08.1,0000.0,0006.73,0004.50,0004.26
2022-11-19 08:20:00,,0829.5,5.01,0.00,22.2,21.8,00.0,31.0,24.0,08.0,0000.0,0006.60,0004.41,0004.17
2022-11-19 08:21:00,,0829.5,5.01,0.00,22.1,21.3,00.0,31.0,23.9,08.0,0000.0,0006.31,0004.29,0004.07
2022-11-19 08:22:00,,0829.5,4.99,0.00,22.1,20.9,00.0,31.0,23.8,08.1,0000.0,0006.07,0004.17,0003.96
2022-11-19 08:23:00,,0829.5,5.00,0.00,22.0,20.6,00.0,31.0,23.7,08.0,0000.0,0005.86,0004.08,0003.88
2022-11-19 08:24:00,,0829.5,5.02,0.00,22.0,20.3,00.0,31.0,23.6,08.0,0000.0,0005.56,0003.99,0003.82
2022-11-19 08:25:00,,0829.5,4.98,0.00,21.9,20.1,00.0,31.0,23.5,08.2,0000.0,0005.36,0003.89,0003.72
2022-11-19 08:26:00,,0829.5,5.02,0.00,21.9,20.8,00.0,30.9,23.6,08.3,0000.0,0005.23,0003.80,0003.63
2022-11-19 08:27:00,,0829.6,5.00,0.00,22.0,21.8,00.0,30.9,23.9,08.2,0000.0,0004.90,0003.70,0003.54
2022-11-19 08:28:00,,0829.6,4.98,0.00,22.1,21.9,00.0,30.9,24.0,08.1,0000.0,0004.32,0003.61,0003.46
2022-11-19 08:29:00,,0829.6,5.01,0.00,22.1,21.4,00.0,30.9,23.9,08.0,0000.0,0004.30,0003.56,0003.41
2022-11-19 08:30:00,,0829.6,5.01,0.00,22.0,21.0,00.0,31.0,23.8,07.9,0000.0,0004.09,0003.49,0003.36
2022-11-19 08:31:00,,0829.6,5.00,0.00,22.0,20.7,00.0,31.0,23.7,08.0,0000.0,0003.91,0003.44,0003.33
2022-11-19 08:32:00,,0829.6,5.00,0.00,21.9,20.4,00.0,31.0,23.6,08.1,0000.0,0003.80,0003.37,0003.26
2022-11-19 08:33:00,,0829.6,5.00,0.00,21.9,20.2,00.0,30.9,23.5,08.2,0000.0,0003.70,0003.30,0003.17
2022-11-19 08:34:00,,0829.6,5.00,0.00,21.8,20.3,00.0,30.9,23.5,08.3,0000.0,0003.47,0003.17,0003.01
2022-11-19 08:35:00,,0829.6,5.01,0.00,21.9,21.2,00.0,30.8,23.7,08.3,0000.0,0003.42,0003.00,0002.78
2022-11-19 08:36:00,,0829.6,4.99,0.00,22.0,22.2,00.0,30.8,23.9,08.4,0000.0,0003.31,0002.87,0002.65
2022-11-19 08:37:00,,0829.5,4.99,0.00,22.1,22.3,00.0,30.8,24.0,08.4,0000.0,0003.30,0002.80,0002.56
2022-11-19 08:38:00,,0829.6,5.01,0.00,22.1,21.7,00.0,30.9,24.0,08.4,0000.0,0003.23,0002.71,0002.46
2022-11-19 08:39:00,,0829.5,5.00,0.00,22.1,21.2,00.0,30.9,23.8,08.5,0000.0,0003.11,0002.60,0002.36
2022-11-19 08:40:00,,0829.6,4.99,0.00,22.0,20.8,00.0,30.9,23.7,08.4,0000.0,0002.96,0002.49,0002.26
2022-11-19 08:41:00,,0829.6,5.00,0.00,22.0,20.6,00.0,30.9,23.6,08.5,0000.0,0002.84,0002.37,0002.15
2022-11-19 08:42:00,,0829.5,5.01,0.00,21.9,20.4,00.0,30.9,23.5,08.5,0000.0,0002.77,0002.25,0002.03
2022-11-19 08:43:00,,0829.5,5.01,0.00,21.9,20.3,00.0,30.9,23.5,08.6,0000.0,0002.72,0002.16,0001.94
2022-11-19 08:44:00,,0829.5,5.01,0.00,21.9,21.3,00.0,30.8,23.7,08.6,0000.0,0002.71,0002.10,0001.87
2022-11-19 08:45:00,,0829.6,4.99,0.00,22.0,22.2,00.0,30.8,23.9,08.5,0000.0,0002.67,0002.07,0001.83
2022-11-19 08:46:00,,0829.6,4.99,0.00,22.1,22.5,00.0,30.8,24.0,08.4,0000.0,0002.54,0002.05,0001.80
2022-11-19 08:47:00,,0829.6,5.00,0.00,22.1,21.9,00.0,30.9,23.9,08.3,0000.0,0002.50,0002.06,0001.79
2022-11-19 08:48:00,,0829.5,5.00,0.00,22.1,21.3,00.0,30.9,23.8,08.3,0000.0,0002.44,0002.05,0001.81
2022-11-19 08:49:00,,0829.6,4.99,0.00,22.0,20.8,00.0,30.9,23.7,08.3,0000.0,0002.46,0002.06,0001.81
2022-11-19 08:50:00,,0829.5,4.99,0.00,22.0,20.6,00.0,30.9,23.6,08.4,0000.0,0002.43,0002.04,0001.80
2022-11-19 08:51:00,,0829.6,5.00,0.00,21.9,20.3,00.0,30.9,23.6,08.4,0000.0,0002.47,0002.06,0001.79
2022-11-19 08:52:00,,0829.5,5.02,0.00,21.9,20.2,00.0,30.9,23.5,08.4,0000.0,0002.48,0002.06,0001.79
2022-11-19 08:53:00,,0829.6,5.00,0.00,21.8,20.6,00.0,30.9,23.5,08.3,0000.0,0002.45,0002.06,0001.80
2022-11-19 08:54:00,,0829.5,4.99,0.00,21.9,21.6,00.0,30.8,23.8,08.1,0000.0,0002.48,0002.10,0001.84
2022-11-19 08:55:00,,0829.6,4.99,0.00,22.0,22.4,00.0,30.8,24.0,08.0,0000.0,0002.51,0002.12,0001.88
2022-11-19 08:56:00,,0829.6,4.99,0.00,22.1,22.2,00.0,30.9,24.0,07.9,0000.0,0002.55,0002.13,0001.90
2022-11-19 08:57:00,,0829.6,5.01,0.00,22.1,21.6,00.0,30.9,23.9,07.9,0000.0,0002.52,0002.13,0001.92
2022-11-19 08:58:00,,0829.6,5.00,0.00,22.0,21.1,00.0,30.9,23.8,07.9,0000.0,0002.46,0002.10,0001.93
2022-11-19 08:59:00,,0829.6,4.99,0.00,22.0,20.7,00.0,30.9,23.7,07.9,0000.0,0002.50,0002.11,0001.93
